Location: Asheville, NC
(35.6000°N, 82.5500°W)
Time: 14:37:18
(UTC-04:00)

HO-68 - Pass Details

Date: 07 January 2018
Orbit: 1193 x 1204 km, 100.1° (Epoch: 19 April)

Event Time Altitude Azimuth Distance (km) Brightness Sun altitude
Rises 19:32:41 0° 187° (S) 4,088 ? -23.7°
Reaches altitude 10° 19:35:30 10° 194° (SSW) 3,125 ? -24.3°
Maximum altitude 19:42:04 39° 261° (W) 1,720 ? -25.6°
Drops below altitude 10° 19:48:41 10° 329° (NNW) 3,134 ? -26.9°
Sets 19:51:32 0° 337° (NNW) 4,101 ? -27.5°
